EET,Max TemperatureF,Mean TemperatureF,Min TemperatureF,Max Dew PointF,MeanDew PointF,Min DewpointF,Max Humidity, Mean Humidity, Min Humidity, Max Sea Level PressureIn, Mean Sea Level PressureIn, Min Sea Level PressureIn, Max VisibilityMiles, Mean VisibilityMiles, Min VisibilityMiles, Max Wind SpeedMPH, Mean Wind SpeedMPH, Max Gust SpeedMPH,PrecipitationIn, CloudCover, Events, WindDirDegrees
2012-10-1,104,90,77,64,61,57,54,35,18,29.92,29.86,29.80,6,6,2,20,2,,0.00,2,,301
2012-10-2,104,92,80,66,61,55,54,35,16,29.95,29.87,29.83,6,6,6,6,2,,0.00,2,,18
2012-10-3,104,91,78,64,59,54,54,34,18,29.95,29.88,29.80,6,6,5,8,4,,0.00,3,,244
2012-10-4,102,88,75,61,56,50,53,34,14,29.89,29.83,29.77,6,6,6,7,3,,0.00,2,,259
2012-10-5,100,87,74,59,55,48,42,32,16,29.92,29.85,29.80,6,6,6,9,3,,0.00,4,,354
2012-10-6,96,86,75,61,57,54,50,37,18,29.95,29.89,29.83,6,6,6,7,3,,0.00,4,,360
2012-10-7,95,82,69,61,56,50,57,40,18,29.95,29.91,29.85,6,6,6,7,2,,0.00,,,320
2012-10-8,94,80,67,77,58,52,89,44,24,29.95,29.90,29.83,6,6,6,8,2,,0.00,,,347
2012-10-9,93,80,67,61,57,54,60,41,21,29.92,29.85,29.80,6,6,6,6,2,,0.00,,,348
2012-10-10,95,80,66,59,56,50,57,41,21,29.89,29.82,29.77,6,6,6,5,1,,0.00,,,217
2012-10-11,97,82,67,57,54,48,53,37,18,29.89,29.84,29.79,6,6,6,4,1,,0.00,,,197
2012-10-12,97,83,69,61,55,48,53,37,18,29.95,29.87,29.83,6,6,6,5,2,,0.00,,,72
2012-10-13,99,87,75,66,59,55,53,40,22,29.95,29.87,29.83,6,6,6,6,2,,0.00,,,206
2012-10-14,99,87,75,66,61,55,57,40,20,29.92,29.85,29.79,6,6,6,5,2,,0.00,,,326
2012-10-15,100,86,72,65,61,41,64,42,17,29.92,29.86,29.80,6,5,2,5,2,,0.00,,,358
2012-10-16,103,88,72,63,59,52,57,37,18,29.95,29.90,29.85,6,6,6,8,2,,0.00,,,354
2012-10-17,102,86,70,57,50,39,38,28,13,29.92,29.87,29.80,6,6,6,7,1,,0.00,,,16
2012-10-18,100,86,71,61,51,41,42,30,14,29.86,29.79,29.70,6,6,6,5,1,,0.00,,,360
2012-10-19,97,85,73,63,55,48,45,34,20,29.83,29.78,29.74,6,5,4,7,1,,0.00,3,,6
2012-10-20,97,84,70,64,56,52,57,37,21,29.86,29.79,29.74,6,5,5,7,2,,0.00,,,353
2012-10-21,96,84,73,63,58,54,61,41,17,29.86,29.81,29.75,6,6,6,9,4,,0.00,3,,291
2012-10-22,93,81,69,61,55,48,60,41,22,29.92,29.87,29.83,6,6,6,7,2,,0.00,,,226
2012-10-23,92,78,63,61,51,45,100,39,23,30.04,29.90,29.83,6,6,6,5,1,,0.00,,,283
2012-10-24,94,80,67,64,52,46,49,36,21,29.89,29.83,29.77,6,6,6,7,2,,0.00,,,253
2012-10-25,92,78,63,54,50,46,56,36,19,29.92,29.86,29.80,6,6,6,6,2,,0.00,,,220
2012-10-26,91,78,64,57,51,45,49,37,21,29.95,29.88,29.83,6,6,6,4,2,,0.00,,,223
2012-10-27,95,79,63,63,54,46,65,40,19,29.92,29.86,29.80,6,6,6,4,1,,0.00,,,307
2012-10-28,95,80,66,64,57,48,69,46,21,29.98,29.90,29.83,6,6,6,6,2,,0.00,,,348
2012-10-29,93,78,64,59,51,45,59,37,18,29.93,29.87,29.80,6,6,6,4,1,,0.00,,,44
2012-10-30,93,78,64,59,50,43,49,36,20,29.89,29.83,29.77,6,6,6,2,1,,0.00,,,28
2012-10-31,94,78,63,57,50,43,56,37,18,29.92,29.85,29.80,6,5,4,4,1,,0.00,,,294